Location: Terschelling
(53.4100°N, 5.3500°E)
Time: 10:08:11
(UTC+01:00)

BUGSAT 1 - Visible Passes

Search period start: 02 December 2023 00:00
Search period end: 12 December 2023 00:00
Orbit: 537 x 588 km, 98.2° (Epoch: 02 December)

Date Brightness Start Highest point End Pass type
(mag) Time Alt. Az. Time Alt. Az. Time Alt. Az.
02 Dec ? 17:52:22 11° NNE 17:52:22 11° NNE 17:52:38 10° NNE visible
02 Dec ? 19:28:21 13° NNW 19:28:21 13° NNW 19:28:52 10° NNW visible
03 Dec ? 17:52:00 10° NNE 17:52:00 10° NNE 17:52:07 10° NNE visible
03 Dec ? 19:27:58 13° NNW 19:27:58 13° NNW 19:28:23 10° NNW visible
04 Dec ? 17:51:35 10° NNE 17:51:35 10° NNE 17:51:36 10° NNE visible
04 Dec ? 19:27:34 12° NNW 19:27:34 12° NNW 19:27:54 10° NNW visible
05 Dec ? 19:27:08 12° NNW 19:27:08 12° NNW 19:27:22 10° NNW visible
06 Dec ? 19:26:41 11° NNW 19:26:41 11° NNW 19:26:51 10° NNW visible
07 Dec ? 19:26:11 11° NNW 19:26:11 11° NNW 19:26:18 10° NNW visible
08 Dec ? 19:25:41 10° NNW 19:25:41 10° NNW 19:25:44 10° NNW visible
